Regional Weather Roundup
Issued by NWS Northern Indiana

Home | Current Version | Previous Version | Graphics & Text | Print | Product List | Glossary On
Versions: 1 2 3 4 5 6 7 8 9 10 11 12 13 14 15 16 17 18 19 20 21 22 23 24 25 26 27 28 29 30 31 32 33 34 35 36 37 38 39 40 41 42 43 44 45 46 47 48 49 50
000
ASUS43 KIWX 220100
RWRIWX

KIWX WEATHER ROUNDUP
NATIONAL WEATHER SERVICE NORTHERN INDIANA
900 PM EDT THU MAY 21 2015

NOTE: "FAIR" INDICATES FEW OR NO CLOUDS BELOW 12,000 FEET WITH NO
SIGNIFICANT WEATHER AND/OR OBSTRUCTIONS TO VISIBILITY.

* THESE STATIONS ARE NOT UNDER NWS QUALITY CONTROL. THEY ALSO MAY NOT
  REPORT WEATHER SUCH AS PRECIPITATION OR FOG.

INZ001>027-220200-
NORTHERN INDIANA

CITY           SKY/WX    TMP DP  RH WIND       PRES   REMARKS
GARY*          CLEAR     66  34  30 W14       30.03S
SOUTH BEND     CLEAR     59  33  37 SW7       30.03S
ELKHART*       CLEAR     59  32  36 SW6       30.02S
GOSHEN         CLEAR     54  36  50 W8        30.03R
ANGOLA*        CLEAR     57  43  58 W5        30.02R
FORT WAYNE     CLEAR     55  39  54 W8        30.05R
PERU/GRISSOM   CLEAR     58  40  50 W6        30.05R

$$
INZ028>050-220200-
CENTRAL INDIANA

CITY           SKY/WX    TMP DP  RH WIND       PRES   REMARKS
LAFAYETTE      CLEAR     59  37  44 W3        30.07R
KOKOMO*        CLEAR     57  39  51 W6        30.06S
MUNCIE*        CLEAR     57  38  48 W6        30.07R
INDIANAPOLIS   CLEAR     56  37  49 W8        30.08R

$$
MIZ043>046-050>051-056>058-064>065-071>073-077>080-220200-
SOUTHWEST LOWER MICHIGAN

CITY           SKY/WX    TMP DP  RH WIND       PRES   REMARKS
BATTLE CREEK   CLEAR     56  37  49 SW8       30.00S
BENTON HARBOR  CLEAR     57  35  43 SW8       30.00S
COLDWATER*     CLEAR     53  35  49 W6        30.01R
HILLSDALE*     CLEAR     57  31  37 W6        30.00S
HOLLAND        PTCLDY    58  39  49 SW12      29.98S
GRAND RAPIDS   PTCLDY    58  37  45 SW10      29.97S
KALAMAZOO      CLEAR     59  35  40 SW6       30.00S
STURGIS*       CLEAR     57  34  41 W5        30.01S
THREE RIVERS*  FAIR      58  33  39 W5        30.01S

$$
OHZ001>008-015>018-024>025-220200-
NORTHWEST OHIO

CITY           SKY/WX    TMP DP  RH WIND       PRES   REMARKS
DEFIANCE       CLEAR     59  31  34 W3        30.02R
FINDLAY        CLEAR     55  38  52 W9        30.01S
TOLEDO EXPRESS CLEAR     58  35  42 W8        29.99R
TOLEDO METCALF CLEAR     58  35  42 W9        30.00R
LIMA           CLEAR     54  38  54 W7        30.04R

$$
AND FOR LAKE MICHIGAN COASTAL AND OPEN LAKE BUOY OBSERVATIONS

STATION/POSITION TEMP    WIND        PRES    VSBY  WAVE
                 AIR SEA DIR/SP/G                  HT/PER
                 (F)     (DEG/KT/KT) (MB)    (MI)  (FT/S)
CALUMET HARBOR    67     250/  5/ 11   N/A
MICHIGAN CITY     62     210/  8/  8   N/A
BURNS HARBOR      64     230/  5/  5 1017.3S
SAINT JOSEPH      60     180/ 14/ 17 1015.9F
SOUTH LAKE BUOY   45 38  190/ 14/ 14 1015.3S
4 MI NW BRIDGMAN  56 53  240/ 10/ 10   N/A           1
MICHIGAN CITY     57 53  210/  6/  8   N/A           0

$$
&&



USA.gov is the U.S. government's official web portal to all federal, state and local government web resources and services.